{"data":{"norad_id":50190,"epoch":"2026-09-20T00:31:22.454688Z","epoch_age_seconds":86547,"freshness":"FRESH","line1":"1 50190U 21125AL  26263.02178767 -.00004096  00000+0 -11029-3 0  9999","line2":"2 50190  53.1582  69.6109 0001007 141.0763 219.0312 15.34367395266303","mean_motion":15.34367395,"eccentricity":0.0001007,"inclination_deg":53.1582,"raan_deg":69.6109,"arg_perigee_deg":141.0763,"mean_anomaly_deg":219.0312,"bstar":-0.00011029,"rev_number":26630,"period_min":93.849752327408,"perigee_km":462.11126848328,"apogee_km":463.48903322546,"semimajor_km":6840.9371508544,"source":"CELESTRAK","updated_at":"2026-09-20T09:00:39.418379Z"}}